TimeEDT,TemperatureF,Dew PointF,Humidity,Sea Level PressureIn,VisibilityMPH,Wind Direction,Wind SpeedMPH,Gust SpeedMPH,PrecipitationIn,Events,Conditions,WindDirDegrees,DateUTC
12:56 AM,57.9,53.1,84,29.80,10.0,Calm,Calm,-,N/A,,Mostly Cloudy,0,2013-05-16 04:56:00
1:31 AM,60.8,53.6,77,29.82,10.0,Calm,Calm,-,N/A,Thunderstorm,Overcast,0,2013-05-16 05:31:00
1:46 AM,62.6,53.6,72,29.82,10.0,SW,3.5,-,N/A,Thunderstorm,Overcast,230,2013-05-16 05:46:00
1:56 AM,63.0,53.1,70,29.80,10.0,WSW,3.5,-,N/A,Thunderstorm,Overcast,250,2013-05-16 05:56:00
2:05 AM,64.4,53.6,68,29.82,10.0,WSW,3.5,-,N/A,Thunderstorm,Overcast,250,2013-05-16 06:05:00
2:27 AM,62.6,51.8,68,29.82,10.0,West,5.8,-,N/A,,Mostly Cloudy,270,2013-05-16 06:27:00
2:56 AM,64.9,51.1,61,29.81,10.0,West,8.1,-,N/A,,Overcast,270,2013-05-16 06:56:00
3:56 AM,62.1,52.0,70,29.81,10.0,West,3.5,-,N/A,,Mostly Cloudy,280,2013-05-16 07:56:00
4:56 AM,55.9,50.0,80,29.83,10.0,WSW,3.5,-,N/A,,Clear,250,2013-05-16 08:56:00
5:56 AM,57.0,48.9,74,29.83,10.0,Calm,Calm,-,0.00,,Clear,0,2013-05-16 09:56:00
6:56 AM,53.1,50.0,89,29.86,10.0,West,4.6,-,N/A,,Clear,280,2013-05-16 10:56:00
7:56 AM,62.1,48.9,62,29.88,10.0,NNW,6.9,-,N/A,,Clear,330,2013-05-16 11:56:00
8:56 AM,66.0,48.0,52,29.89,10.0,NNW,6.9,-,N/A,,Clear,340,2013-05-16 12:56:00
9:56 AM,69.1,45.0,42,29.90,10.0,Calm,Calm,-,N/A,,Clear,0,2013-05-16 13:56:00
10:56 AM,73.0,46.0,38,29.92,10.0,NNW,8.1,-,N/A,,Clear,340,2013-05-16 14:56:00
11:56 AM,73.9,45.0,35,29.92,10.0,West,4.6,-,N/A,,Clear,260,2013-05-16 15:56:00
12:56 PM,75.0,44.1,33,29.92,10.0,WNW,5.8,-,N/A,,Clear,300,2013-05-16 16:56:00
1:56 PM,75.9,46.0,35,29.92,10.0,NW,5.8,-,N/A,,Clear,320,2013-05-16 17:56:00
2:56 PM,77.0,46.0,33,29.92,10.0,SW,8.1,-,N/A,,Clear,220,2013-05-16 18:56:00
3:56 PM,79.0,45.0,30,29.92,10.0,WNW,4.6,-,N/A,,Clear,300,2013-05-16 19:56:00
4:56 PM,79.0,43.0,28,29.92,10.0,South,6.9,-,N/A,,Partly Cloudy,190,2013-05-16 20:56:00
5:56 PM,79.0,45.0,30,29.93,10.0,North,4.6,-,N/A,,Mostly Cloudy,350,2013-05-16 21:56:00
6:56 PM,77.0,44.1,31,29.92,10.0,WSW,5.8,-,N/A,,Partly Cloudy,240,2013-05-16 22:56:00
7:56 PM,73.0,45.0,37,29.92,10.0,SW,4.6,-,N/A,,Clear,230,2013-05-16 23:56:00
8:56 PM,68.0,45.0,43,29.94,10.0,WSW,5.8,-,N/A,,Clear,240,2013-05-17 00:56:00
9:56 PM,64.0,48.0,56,29.96,10.0,SSW,3.5,-,N/A,,Clear,200,2013-05-17 01:56:00
10:56 PM,57.0,46.9,69,29.98,10.0,Calm,Calm,-,N/A,,Clear,0,2013-05-17 02:56:00
11:56 PM,55.0,48.0,77,29.98,10.0,Calm,Calm,-,N/A,,Clear,0,2013-05-17 03:56:00